Showing default

ESSA 7 (TOS-E), 3345

Orbit data source: Space-Track

ESSA 7 (TOS-E), 3345 is a payload satellite owned by ESSA (US) in SSO that was launched on Fri, 16 Aug 1968 UTC via a THOR DELTA N launch vehicle from the Air Force Western Test Range (AFWTR). Payload-class satellites include a variety of spacecraft equipped with specific instruments for various scientific and technological missions. These include communications satellites like Starlink; space stations such as the ISS; scientific satellites like the Hubble; Earth observation satellites from companies like Planet Labs, Umbra, and HawkEye 360; GPS; miniature CubeSats for education and research; and military/defense satellites.

Loading next visibility...
Identifier
3345, 1968-069A
Orbit
SSO
Last TLE update
1 day ago
Origin
Manufacturer
RCA/East Windsor
Mission
Non-operational Civil Weather
Bus & Motor
TIROS I, Unknown motor
Mass
154 kg wet, 154 kg dry
Launch date (UTC)
1968-08-16 (57 years ago)
Launch vehicle
THOR DELTA N
Launch site
Air Force Western Test Range (AFWTR)
Object type
Payload
Rocket body
Debris
Shape & HBR
Cyl, 1.07 m
Radar Cross Section
0.920 m², Medium (>0.1 m² and < 1m²)

Expand to show TLE details & history

TLE from 1 day ago
0 ESSA 7 (TOS-E)
1 03345U 68069A   25128.87015925 -.00000033  00000-0  67093-4 0  9995
2 03345 101.5008 101.9951 0026334 235.2230 179.6644 12.53003458594346
Epoch: 2025-05-08T20:53Z
Definitive object data (Epoch: 2025-05-08T20:53:01.759Z)
Latitude
53.37893°
Longitude
-94.00482°
Altitude
1,481.113 km
Speed
7.118 km/s
True Right ascension
05h 44m 44s
True Declination
53° 13' 46"
Sunlit
Object was in daylight at TLE epoch
Visualization TLE readout
Latitude
14.55271°
Longitude
-80.05899°
Altitude
1,470.064 km
Speed
7.122 km/s
Apparent Right ascension
04h 01m 01s
Apparent Declination
-21° 39' 13"
Sunlit
Object is in daylight
Visualization observer readout
Local Sidereal Time
09:36:44
Azimuth
249.472° W
Elevation
-9.289°
Doppler factor
1
Orbital elements
Apogee altitude
1,470.099 km
Perigee altitude
1,428.873 km
Semi-major axis
7,827.623 km
Eccentricity
0.0026334
Inclination
101.5008°
RAAN
101.9951°
Arg. of periapsis
235.223°
True anomaly
179.66616°
Mean anomaly
179.6644°
Eccentric anomaly
179.66528°
Mean motion
3.134 °/min
BSTAR
0.000067093
Orbital period
114.87 mins
Loading maneuver chart data...
Loading SW <> Apogee altitude chart data...
Loading historical data...
Loading historical data...
Loading historical data...
Loading historical data...
Loading historical data...
Loading historical data...
Loading historical data...

ESSA 7 (TOS-E) Visibility forecast

Observer location: undefined°, undefined°

Span
Click to sort rows by Start time (UTC) header in descending order
Start Az.
Max El. time (UTC)
Max El. Az.
Max El.
End time (UTC)
End Az.
12 mins2025-05-10 09:39:47.741Z45.699° ENE2025-05-10 09:45:47.741Z95.452° ESE22.197°2025-05-10 09:51:47.741Z143.621° SSE
14 mins2025-05-10 11:32:47.741Z10.664° NNE2025-05-10 11:38:47.741Z305.984° NW43.347°2025-05-10 11:46:47.741Z210.242° SW
7 mins2025-05-10 13:27:47.741Z332.89° NNW2025-05-10 13:30:47.741Z308.779° NW15.612°2025-05-10 13:34:47.741Z278.905° WNW
13 mins2025-05-10 20:38:47.741Z114.067° SE2025-05-10 20:44:47.741Z59.641° ENE29.206°2025-05-10 20:51:47.741Z0.17° NNE
14 mins2025-05-10 22:30:47.741Z183.743° SSW2025-05-10 22:36:47.741Z244.757° WSW39.796°2025-05-10 22:44:47.741Z333.594° NNW
|